Location: Gro�sch�nbrunn
(49.5760°N, 11.8868°E)
Time: 02:21:33
(UTC+00:00)

Landsat 7 - Pass Details

Date: 18 September 2020
Orbit: 701 x 703 km, 98.1° (Epoch: 30 October)

Event Time Altitude Azimuth Distance (km) Brightness Sun altitude
Exits shadow 19:25:45 36° 74° (ENE) 1,111 4.5 -20.6°
Maximum altitude 19:26:00 36° 66° (ENE) 1,106 4.5 -20.6°
Drops below altitude 10° 19:30:22 10° 1° (N) 2,184 6.7 -21.2°
Sets 19:32:46 0° 353° (N) 3,107 7.7 -21.5°
